User: anonymous   Login
Location: Amarillo Post Office Jordan Station
(35.1907°N, 101.9342°W)
Time: 19:36:15
(UTC+00:00)
Language:

Cosmos 1943 Rocket - Orbit

View from above orbital plane
View from above orbital plane
View from above satellite
View from above satellite

Ground track
Ground track

The orbit data is extracted from the following two-line orbital elements,

1 19120U 88039B   21112.53480355 -.00000050  00000-0 -93334-6 0  9996
2 19120  71.0152 235.4133 0022629 198.8243 161.2047 14.19222265705779
Epoch (UTC): 22 April 2021 12:50:07
Eccentricity: 0.0022629
inclination: 71.0152°
perigee height: 811 km
apogee height: 844 km
right ascension of ascending node: 235.4133°
argument of perigee: 198.8243°
revolutions per day: 14.19222265
mean anomaly at epoch: 161.2047°
orbit number at epoch: 70577

The dashed part of the orbit path shows where the satellite is in the earth's shadow,  

DLR